This is the latest recevied weather packets stored in our database for station/object OK2JF-6. If no packets are shown the sender has not sent any weather packets the latest 10 day(s).
| Time | Temp. | Humidity | Pressure | Rain* | Wind** | Luminosity | Snow |
|---|---|---|---|---|---|---|---|
| 1777975563 | 24.44° C | 38% | 1080.4 hPa | 0 mm | - | 495 W/m² | - |
| 1777975517 | 24.44° C | 38% | 1080.4 hPa | 0 mm | - | 495 W/m² | - |
| 1777975083 | 24.44° C | 39% | 1080.5 hPa | 0 mm | - | 380 W/m² | - |
| 1777974618 | 25° C | 39% | 1080.4 hPa | 0 mm | - | 491 W/m² | - |
| 1777974543 | 24.44° C | 40% | 1080.1 hPa | 0 mm | - | 490 W/m² | - |
| 1777973523 | 24.44° C | 38% | 1080.6 hPa | 0 mm | - | 163 W/m² | - |
| 1777973463 | 24.44° C | 38% | 1080.5 hPa | 0 mm | - | 387 W/m² | - |
| 1777972563 | 24.44° C | 39% | 1080.4 hPa | 0 mm | - | 447 W/m² | - |
| 1777972503 | 24.44° C | 39% | 1080.6 hPa | 0 mm | - | 426 W/m² | - |
| 1777972443 | 24.44° C | 38% | 1080.3 hPa | 0 mm | - | 286 W/m² | - |
| 1777972083 | 24.44° C | 38% | 1080.7 hPa | 0 mm | - | 463 W/m² | - |
| 1777971783 | 23.89° C | 39% | 1080.9 hPa | 0 mm | - | 457 W/m² | - |
| 1777971603 | 23.89° C | 39% | 1080.5 hPa | 0 mm | - | 452 W/m² | - |
| 1777971423 | 23.33° C | 39% | 1080.4 hPa | 0 mm | - | 448 W/m² | - |
| 1777971139 | 23.33° C | 39% | 1080.6 hPa | 0 mm | - | 444 W/m² | - |
| 1777970958 | 23.89° C | 38% | 1080.5 hPa | 0 mm | - | 440 W/m² | - |
| 1777970583 | 23.33° C | 39% | 1080.5 hPa | 0 mm | - | 430 W/m² | - |
| 1777970283 | 23.33° C | 38% | 1080.6 hPa | 0 mm | - | 423 W/m² | - |
| 1777970163 | 23.33° C | 38% | 1080.6 hPa | 0 mm | - | 420 W/m² | - |
| 1777969863 | 23.33° C | 39% | 1080.7 hPa | 0 mm | - | 413 W/m² | - |
| 1777969803 | 23.33° C | 40% | 1080.6 hPa | 0 mm | - | 411 W/m² | - |
| 1777969697 | 22.78° C | 40% | 1080.7 hPa | 0 mm | - | 409 W/m² | - |
| 1777969323 | 22.78° C | 40% | 1080.8 hPa | 0 mm | - | 397 W/m² | - |
| 1777969203 | 22.78° C | 40% | 1080.5 hPa | 0 mm | - | 396 W/m² | - |
| 1777969083 | 22.78° C | 39% | 1080.8 hPa | 0 mm | - | 391 W/m² | - |
* Rain latest hour (hover to see other rain measurements)
** Current wind speed in m/s (hover to see current wind gust speed)